Location: Unspecified
(0.0000°N, 0.0000°E)
Time: 08:15:16
(UTC+00:00)

Transit 2A Rocket - All Passes

Search period start: 20 October 2021 00:00
Search period end: 30 October 2021 00:00
Orbit: 585 x 918 km, 66.7° (Epoch: 19 October)

Date Brightness Start Highest point End Pass type
(mag) Time Alt. Az. Time Alt. Az. Time Alt. Az.
20 Oct - 05:10:05 10° NNW 05:15:57 71° WSW 05:21:23 10° SSE visible
20 Oct - 15:59:37 10° SSE 16:02:27 16° ESE 16:05:23 10° ENE daylight
20 Oct - 17:41:05 10° WSW 17:44:41 23° WNW 17:48:30 10° NNW daylight
21 Oct - 04:27:34 10° N 04:33:21 57° ENE 04:38:44 10° SSE visible
21 Oct - 16:57:38 10° SW 17:02:01 52° WNW 17:06:47 10° N daylight
22 Oct - 03:45:43 10° N 03:50:42 28° ENE 03:55:22 10° SE visible
22 Oct - 05:28:42 10° WNW 05:33:00 22° WSW 05:37:06 10° SSW daylight
22 Oct - 16:14:59 10° SSW 16:19:26 66° ESE 16:24:16 10° NNE daylight
23 Oct - 03:05:05 10° NE 03:07:58 14° ENE 03:10:47 10° E visible
23 Oct - 04:44:57 10° NW 04:50:28 44° WSW 04:55:36 10° S visible
23 Oct - 15:33:03 10° SSE 15:36:55 28° ESE 15:41:00 10° NE daylight
23 Oct - 17:16:53 10° W 17:19:16 14° WNW 17:21:45 10° NW daylight
24 Oct - 04:02:02 10° NNW 04:07:55 90° NNE 04:13:21 10° SSE visible
24 Oct - 14:52:36 10° SE 14:54:23 12° ESE 14:56:14 10° E daylight
24 Oct - 16:32:32 10° SW 16:36:34 30° WNW 16:40:53 10° N daylight
25 Oct - 03:19:44 10° N 03:25:17 44° ENE 03:30:27 10° SE visible
25 Oct - 05:04:56 10° W 05:07:30 13° WSW 05:10:00 10° SW visible
25 Oct - 15:49:25 10° SSW 15:53:56 72° WNW 15:58:51 10° NNE daylight
26 Oct - 02:38:12 10° NNE 02:42:36 22° ENE 02:46:47 10° ESE visible
26 Oct - 04:20:09 10° NW 04:24:59 28° WSW 04:29:31 10° SSW visible
26 Oct - 15:07:01 10° S 15:11:22 48° ESE 15:16:05 10° NE daylight
27 Oct - 01:59:18 10° ENE 01:59:51 10° ENE 02:00:24 10° ENE visible
27 Oct - 03:36:44 10° NNW 03:42:26 57° WSW 03:47:42 10° S visible
27 Oct - 14:25:26 10° SSE 14:28:51 21° ESE 14:32:28 10° ENE daylight
27 Oct - 16:07:53 10° WSW 16:11:08 19° WNW 16:14:35 10° NNW daylight
28 Oct - 02:54:02 10° NNW 02:59:52 70° ENE 03:05:13 10° SSE visible
28 Oct - 15:24:08 10° SW 15:28:27 41° WNW 15:33:09 10° N daylight
29 Oct - 02:11:59 10° N 02:17:12 34° ENE 02:22:05 10° SE visible
29 Oct - 03:55:51 10° WNW 03:59:28 17° WSW 04:02:55 10° SSW visible
29 Oct - 14:41:17 10° SSW 14:45:50 84° ESE 14:50:49 10° NNE daylight
